Weather History for Clinton, BC

Change the Weather History Date:

Sunday, May 5, 2013

  Actual Average Record
Temperature  
Mean Temperature 60 °F -  
Max Temperature 77 °F 53 °F 77 °F (2013)
Min Temperature 43 °F 29 °F 23 °F (1999)
Degree Days  
Heating Degree Days 5    
Growing Degree Days 10 (Base 50)    
Moisture  
Dew Point 33 °F    
Average Humidity 39    
Maximum Humidity 71    
Minimum Humidity 7    
Precipitation  
Precipitation 0.04 in - - ()
Sea Level Pressure  
Sea Level Pressure 30.06 in    
Wind  
Wind Speed 4 mph ()    
Max Wind Speed 9 mph    
Max Gust Speed -    
Visibility 9.0 miles    
Events      
Averages and records for this station are not official NWS values.
T = Trace of Precipitation, MM = Missing Value Source: Averaged Metar Reports

Daily Weather History Graph

Daily Weather History Graph

Search for Another Location

Airport:

Trip Planner

Search our weather history database for the weather conditions in past years. The results will help you decide how hot, cold, wet, or windy it might be!

Date:

Astronomy

May. 05, 2013 Rise Set
Actual Time 5:31 AM PDT 8:35 PM PDT
Civil Twilight 4:52 AM PDT 9:14 PM PDT
Nautical Twilight 4:01 AM PDT 10:05 PM PDT
Astronomical Twilight 2:57 AM PDT 11:11 PM PDT
Moon 3:32 AM PDT (5/5) 4:15 PM PDT (5/5)
Length of Visible Light 16h 21m
Length of Day
15h 04m
Waning Crescent, 17% of the Moon is Illuminated
May 5
Waning Crescent
May 9
New
May 17
First Quarter
May 24
Full
May 31
Last Quarter

Hourly Weather History & Observations

Time (PDT) Temp. Windchill Dew Point Humidity Pressure Visibility Wind Dir Wind Speed Gust Speed Precip Events Conditions
12:00 AM 53.6 °F - 37.4 °F 54% 30.18 in 9.0 mi NW 9.2 mph - N/A   Clear
1:00 AM 53.6 °F - 37.4 °F 54% 30.17 in 9.0 mi Calm Calm - N/A   Clear
2:00 AM 44.6 °F - 35.6 °F 71% 30.17 in 9.0 mi NW 2.3 mph - N/A   Clear
3:00 AM 44.6 °F - 35.6 °F 71% 30.17 in 9.0 mi NNW 2.3 mph - N/A   Clear
4:00 AM 44.6 °F 42.2 °F 35.6 °F 71% 30.16 in 9.0 mi NW 4.6 mph - N/A   Clear
5:00 AM 45 °F - 36 °F 61% 30.15 in 9 mi WNW 5.8 mph - -  
5:00 AM 44.6 °F 40.7 °F 35.6 °F 71% 30.15 in 9.0 mi NW 6.9 mph - N/A   Clear
6:00 AM 44.6 °F 43.1 °F 35.6 °F 71% 30.15 in 9.0 mi NW 3.5 mph - N/A   Clear
7:00 AM 48.2 °F - 37.4 °F 66% 30.14 in 9.0 mi Calm Calm - N/A   Clear
8:00 AM 54 °F - 39 °F 45% 30.15 in 9 mi Calm Calm - -  
8:00 AM 53.6 °F - 39.2 °F 58% 30.15 in 9.0 mi Calm Calm - N/A   Clear
9:00 AM 60.8 °F - 41.0 °F 48% 30.13 in 9.0 mi East 3.5 mph - N/A   Clear
10:00 AM 66.2 °F - 37.4 °F 35% 30.11 in 9.0 mi NNE 6.9 mph - N/A   Clear
11:00 AM 69 °F - 37 °F 20% 30.09 in 9 mi North 6.9 mph - -  
11:00 AM 69.8 °F - 37.4 °F 31% 30.09 in 9.0 mi NNE 6.9 mph - N/A   Clear
12:00 PM 71.6 °F - 35.6 °F 27% 30.06 in 9.0 mi NNW 5.8 mph - N/A   Clear
1:00 PM 73.4 °F - 35.6 °F 25% 30.03 in 9.0 mi WNW 4.6 mph - N/A   Clear
2:00 PM 75 °F - 31 °F 11% 30.02 in 9 mi NE 5.8 mph - -  
2:00 PM 75.2 °F - 32.0 °F 21% 30.02 in 9.0 mi NE 5.8 mph - N/A   Clear
3:00 PM 75.2 °F - 26.6 °F 17% 30.00 in 9.0 mi NE 8.1 mph - N/A   Clear
4:00 PM 77.0 °F - 24.8 °F 14% 29.98 in 9.0 mi NNE 8.1 mph - N/A   Clear
5:00 PM 75 °F - 24 °F 7% 29.96 in 9 mi North 6.9 mph - -  
5:00 PM 75.2 °F - 23.0 °F 14% 29.96 in 9.0 mi North 5.8 mph - N/A   Clear
6:00 PM 75.2 °F - 23.0 °F 14% 29.95 in 9.0 mi NE 6.9 mph - N/A   Clear
7:00 PM 73.4 °F - 21.2 °F 14% 29.94 in 9.0 mi North 6.9 mph - N/A   Clear
8:00 PM 60 °F - 32 °F 22% 29.95 in 9 mi North 4.6 mph - -  
8:00 PM 59.0 °F - 32.0 °F 36% 29.95 in 9.0 mi North 4.6 mph - N/A   Clear
9:00 PM 55.4 °F - 32.0 °F 41% 29.95 in 9.0 mi North 5.8 mph - N/A   Clear
10:00 PM 53.6 °F - 30.2 °F 41% 29.95 in 9.0 mi NW 5.8 mph - N/A   Clear
11:00 PM 50 °F - 29 °F 33% 29.95 in 9 mi Calm Calm - -  
11:00 PM 50.0 °F - 30.2 °F 47% 29.95 in 9.0 mi Calm Calm - N/A   Clear